Shawnee, OK

1:32 PM CST on February 09, 2016 (GMT -0600)
Shawnee Municipal

Weather History for KSNL - September, 2012

Change the Weather History Date:

Wednesday, September 12, 2012

  Actual Average (KTIK) Record (KTIK)
Temperature  
Mean Temperature 80 °F -  
Max Temperature 93 °F 83 °F 99 °F (2011)
Min Temperature 68 °F 63 °F 52 °F (2014)
Cooling Degree Days 16    
Growing Degree Days 30 (Base 50)    
Moisture  
Dew Point 62 °F    
Average Humidity 55    
Maximum Humidity 78    
Minimum Humidity 36    
Precipitation  
Precipitation 0.00 in - - ()
Sea Level Pressure  
Sea Level Pressure 30.03 in    
Wind  
Wind Speed 12 mph (SSE)    
Max Wind Speed 21 mph    
Max Gust Speed 28 mph    
Visibility 10 miles    
Events      
Averages and records for this station are not official NWS values.
T = Trace of Precipitation, MM = Missing Value Source: NWS Daily Summary

Daily Weather History Graph

Daily Weather History Graph

Search for Another Location

Airport or City:

Trip Planner

Search our weather history database for the weather conditions in past years. The results will help you decide how hot, cold, wet, or windy it might be!

Date:

Astronomy

Sep. 12, 2012 Rise Set
Actual Time 7:08 AM CDT 7:38 PM CDT
Civil Twilight 6:43 AM CDT 8:03 PM CDT
Nautical Twilight 6:13 AM CDT 8:33 PM CDT
Astronomical Twilight 5:42 AM CDT 9:04 PM CDT
Moon 3:33 AM CDT (9/12) 5:21 PM CDT (9/12)
Length of Visible Light 13h 20m
Length of Day
12h 29m
Waning Crescent, 13% of the Moon is Illuminated
Sep 12
Waning Crescent
Sep 15
New
Sep 22
First Quarter
Sep 29
Full
Oct 8
Last Quarter

Hourly Weather History & Observations

Time (CDT) Temp. Heat Index Dew Point Humidity Pressure Visibility Wind Dir Wind Speed Gust Speed Precip Events Conditions
12:35 AM 77.0 °F - 57.2 °F 50% 30.03 in 10.0 mi SSE 10.4 mph - N/A   Clear
12:55 AM 77.0 °F - 57.2 °F 50% 30.03 in 10.0 mi SSE 10.4 mph - N/A   Clear
1:15 AM 73.4 °F - 55.4 °F 53% 30.03 in 10.0 mi SSE 10.4 mph - N/A   Clear
1:35 AM 73.4 °F - 55.4 °F 53% 30.03 in 10.0 mi SSE 8.1 mph - N/A   Clear
1:55 AM 71.6 °F - 55.4 °F 57% 30.02 in 10.0 mi SSE 10.4 mph - N/A   Clear
2:15 AM 71.6 °F - 55.4 °F 57% 30.02 in 10.0 mi SSE 10.4 mph - N/A   Clear
2:35 AM 71.6 °F - 55.4 °F 57% 30.02 in 10.0 mi SSE 9.2 mph - N/A   Clear
2:55 AM 71.6 °F - 57.2 °F 60% 30.01 in 10.0 mi SSE 8.1 mph - N/A   Clear
3:15 AM 71.6 °F - 57.2 °F 60% 30.02 in 10.0 mi SSE 9.2 mph - N/A   Clear
3:55 AM 71.6 °F - 57.2 °F 60% 30.02 in 10.0 mi SSE 11.5 mph 18.4 mph N/A   Clear
4:15 AM 71.6 °F - 59.0 °F 64% 30.01 in 10.0 mi SSE 12.7 mph - N/A   Clear
4:35 AM 71.6 °F - 59.0 °F 64% 30.01 in 10.0 mi SSE 11.5 mph - N/A   Clear
4:55 AM 71.6 °F - 59.0 °F 64% 30.01 in 10.0 mi SSE 11.5 mph - N/A   Clear
5:15 AM 71.6 °F - 60.8 °F 69% 30.02 in 10.0 mi SSE 11.5 mph - N/A   Clear
5:35 AM 71.6 °F - 60.8 °F 69% 30.02 in 10.0 mi SSE 12.7 mph - N/A   Clear
5:55 AM 68.0 °F - 59.0 °F 73% 30.02 in 10.0 mi SSE 11.5 mph - N/A   Clear
6:15 AM 68.0 °F - 59.0 °F 73% 30.03 in 10.0 mi SSE 11.5 mph - N/A   Clear
6:35 AM 68.0 °F - 59.0 °F 73% 30.03 in 10.0 mi SSE 10.4 mph - N/A   Clear
6:55 AM 68.0 °F - 60.8 °F 78% 30.04 in 10.0 mi SSE 11.5 mph - N/A   Clear
7:15 AM 68.0 °F - 60.8 °F 78% 30.05 in 10.0 mi SSE 12.7 mph - N/A   Clear
7:35 AM 68.0 °F - 60.8 °F 78% 30.05 in 10.0 mi SSE 13.8 mph - N/A   Clear
7:55 AM 71.6 °F - 62.6 °F 73% 30.06 in 10.0 mi South 11.5 mph - N/A   Clear
8:15 AM 71.6 °F - 62.6 °F 73% 30.06 in 10.0 mi South 12.7 mph - N/A   Clear
8:35 AM 71.6 °F - 62.6 °F 73% 30.06 in 10.0 mi South 13.8 mph 20.7 mph N/A   Clear
8:55 AM 73.4 °F - 62.6 °F 69% 30.06 in 10.0 mi South 13.8 mph 20.7 mph N/A   Clear
9:15 AM 77.0 °F - 64.4 °F 65% 30.06 in 10.0 mi South 13.8 mph 19.6 mph N/A   Clear
9:35 AM 77.0 °F - 64.4 °F 65% 30.07 in 10.0 mi South 15.0 mph 20.7 mph N/A   Clear
9:55 AM 78.8 °F - 66.2 °F 65% 30.07 in 10.0 mi SSE 17.3 mph - N/A   Clear
10:15 AM 80.6 °F 83.2 °F 68.0 °F 65% 30.07 in 10.0 mi South 15.0 mph - N/A   Clear
10:35 AM 82.4 °F 85.4 °F 68.0 °F 62% 30.07 in 10.0 mi South 15.0 mph 21.9 mph N/A   Clear
10:55 AM 82.4 °F 86.3 °F 69.8 °F 66% 30.07 in 10.0 mi South 18.4 mph 27.6 mph N/A   Clear
11:15 AM 84.2 °F 88.4 °F 69.8 °F 62% 30.07 in 10.0 mi South 12.7 mph - N/A   Clear
11:35 AM 86.0 °F 90.4 °F 69.8 °F 58% 30.07 in 10.0 mi SSW 20.7 mph 26.5 mph N/A   Clear
11:55 AM 86.0 °F 90.4 °F 69.8 °F 58% 30.07 in 10.0 mi South 16.1 mph 24.2 mph N/A   Clear
12:15 PM 87.8 °F 91.4 °F 68.0 °F 52% 30.06 in 10.0 mi South 18.4 mph 24.2 mph N/A   Clear
12:35 PM 87.8 °F 91.4 °F 68.0 °F 52% 30.06 in 10.0 mi South 15.0 mph 25.3 mph N/A   Clear
12:55 PM 91.4 °F 96.8 °F 69.8 °F 49% 30.05 in 10.0 mi South 12.7 mph 23.0 mph N/A   Clear
1:15 PM 91.4 °F 96.8 °F 69.8 °F 49% 30.05 in 10.0 mi SSE 12.7 mph 21.9 mph N/A   Clear
1:35 PM 91.4 °F 95.4 °F 68.0 °F 46% 30.04 in 10.0 mi South 12.7 mph 21.9 mph N/A   Clear
1:55 PM 91.4 °F 95.4 °F 68.0 °F 46% 30.03 in 10.0 mi SSE 16.1 mph 21.9 mph N/A   Clear
2:15 PM 91.4 °F 94.0 °F 66.2 °F 43% 30.02 in 10.0 mi SSE 15.0 mph 18.4 mph N/A   Clear
2:35 PM 91.4 °F 94.0 °F 66.2 °F 43% 30.02 in 10.0 mi SSW 13.8 mph 24.2 mph N/A   Clear
2:55 PM 93.2 °F 96.2 °F 66.2 °F 41% 30.01 in 10.0 mi South 13.8 mph 21.9 mph N/A   Clear
3:15 PM 91.4 °F 93.2 °F 64.4 °F 41% 30.00 in 10.0 mi SSW 11.5 mph - N/A   Clear
3:35 PM 91.4 °F 93.2 °F 64.4 °F 41% 30.00 in 10.0 mi SSE 13.8 mph 19.6 mph N/A   Clear
3:55 PM 91.4 °F 93.2 °F 64.4 °F 41% 29.99 in 10.0 mi South 15.0 mph 21.9 mph N/A   Clear
4:15 PM 93.2 °F 94.9 °F 64.4 °F 38% 29.99 in 10.0 mi South 11.5 mph - N/A   Clear
4:55 PM 93.2 °F 94.1 °F 62.6 °F 36% 29.98 in 10.0 mi South 15.0 mph 19.6 mph N/A   Clear
5:15 PM 91.4 °F 92.1 °F 62.6 °F 38% 29.98 in 10.0 mi SSW 13.8 mph - N/A   Clear
5:35 PM 91.4 °F 92.1 °F 62.6 °F 38% 29.98 in 10.0 mi South 13.8 mph - N/A   Clear
5:55 PM 91.4 °F 92.1 °F 62.6 °F 38% 29.98 in 10.0 mi SSE 15.0 mph - N/A   Clear
6:15 PM 91.4 °F 92.1 °F 62.6 °F 38% 29.98 in 10.0 mi South 15.0 mph 19.6 mph N/A   Clear
6:35 PM 91.4 °F 92.1 °F 62.6 °F 38% 29.99 in 10.0 mi South 11.5 mph - N/A   Clear
6:55 PM 91.4 °F 92.1 °F 62.6 °F 38% 29.99 in 10.0 mi South 10.4 mph 17.3 mph N/A   Clear
7:15 PM 87.8 °F 87.6 °F 60.8 °F 40% 30.00 in 10.0 mi South 9.2 mph 17.3 mph N/A   Clear
7:35 PM 87.8 °F 87.6 °F 60.8 °F 40% 30.01 in 10.0 mi SSE 9.2 mph - N/A   Clear
7:55 PM 84.2 °F 84.4 °F 60.8 °F 45% 30.01 in 10.0 mi South 5.8 mph - N/A   Clear
8:15 PM 82.4 °F 82.9 °F 60.8 °F 48% 30.02 in 10.0 mi SSE 6.9 mph - N/A   Clear
8:35 PM 82.4 °F 82.9 °F 60.8 °F 48% 30.03 in 10.0 mi SE 5.8 mph - N/A   Clear
8:55 PM 80.6 °F 81.5 °F 60.8 °F 51% 30.03 in 10.0 mi SE 6.9 mph - N/A   Clear
9:15 PM 80.6 °F 81.5 °F 60.8 °F 51% 30.04 in 10.0 mi SE 6.9 mph - N/A   Clear
9:35 PM 80.6 °F 81.1 °F 59.0 °F 48% 30.05 in 10.0 mi SE 6.9 mph - N/A   Clear
9:55 PM 78.8 °F - 59.0 °F 51% 30.05 in 10.0 mi SE 8.1 mph - N/A   Clear
10:15 PM 78.8 °F - 59.0 °F 51% 30.05 in 10.0 mi SE 9.2 mph - N/A   Clear
10:35 PM 78.8 °F - 59.0 °F 51% 30.05 in 10.0 mi SE 8.1 mph - N/A   Clear
10:55 PM 78.8 °F - 60.8 °F 54% 30.06 in 10.0 mi SE 6.9 mph - N/A   Clear
11:15 PM 78.8 °F - 60.8 °F 54% 30.06 in 10.0 mi SE 9.2 mph - N/A   Clear
11:35 PM 78.8 °F - 60.8 °F 54% 30.06 in 10.0 mi SSE 11.5 mph - N/A   Clear
11:55 PM 77.0 °F - 60.8 °F 57% 30.06 in 10.0 mi SSE 9.2 mph - N/A   Clear